Location: Burbank
(38.7788°N, 114.0429°W)
Time: 12:09:42
(UTC+00:00)

Vanguard 2 Rocket - Pass Details

Date: 17 May 2026
Orbit: 553 x 3286 km, 32.9° (Epoch: 11 June)

Event Time Altitude Azimuth Distance (km) Brightness Sun altitude
Rises 15:17:57 0° 195° (SSW) 4,146 10.2 32.3°
Reaches altitude 10° 15:21:14 10° 179° (S) 3,558 10.0 32.9°
Maximum altitude 15:28:04 22° 133° (SE) 3,445 10.8 34.3°
Drops below altitude 10° 15:37:42 10° 91° (E) 5,217 12.1 36.2°
Sets 15:43:57 0° 79° (E) 6,683 12.2 37.4°
